User: anonymous   Login
Location: Ballingbuur
(53.0000°N, 5.7667°E)
Time: 16:07:53
(UTC+00:00)
Language:

COSMOS 2406 - Orbit

View from above orbital plane
View from above orbital plane
View from above satellite
View from above satellite

Ground track
Ground track

The orbit data is extracted from the following two-line orbital elements,

1 28352U 04021A   21063.00911089 -.00000278  00000-0 -12642-3 0  9994
2 28352  71.0052 173.5377 0016614 217.8916 142.1037 14.11696186862188
Epoch (UTC): 04 March 2021 00:13:07
Eccentricity: 0.0016614
inclination: 71.0052°
perigee height: 841 km
apogee height: 865 km
right ascension of ascending node: 173.5377°
argument of perigee: 217.8916°
revolutions per day: 14.11696186
mean anomaly at epoch: 142.1037°
orbit number at epoch: 86218

The dashed part of the orbit path shows where the satellite is in the earth's shadow,  

DLR